When you browse on this site, cookies collect data to enhance your experience and personalize the content and advertising you see.
Visit our Privacy Policy to learn more. By continuing to use the site, you agree to this use of cookies and data.
  • In Hungary
  • List of Countries
  • For 7 days
  • Water Temperature
  • Weather Map
  • News
  • Weather Widgets
  • user-avatar
    Login

    Hourly Weather Shuntuk

    Today, 19 October, Saturday

    Time Temperature Precipitation Wind Pressure Humidity
    00:00 +16°C° 0 mm 1 mps 735 mmHg 68%
    01:00 +16°C° 0 mm 1 mps 735 mmHg 70%
    02:00 +15°C° 0 mm 1 mps 735 mmHg 71%
    03:00 +15°C° 0 mm 1 mps 735 mmHg 73%
    04:00 +15°C° 0 mm 1 mps 735 mmHg 75%
    05:00 +15°C° 0 mm 1 mps 735 mmHg 76%
    06:00 +14°C° 0 mm 1 mps 736 mmHg 78%
    07:00 +16°C° 0 mm 1 mps 736 mmHg 72%
    08:00 +17°C° 0 mm 0 mps 736 mmHg 66%
    09:00 +19°C° 0 mm 0 mps 736 mmHg 60%
    10:00 +22°C° 0 mm 1 mps 736 mmHg 55%
    11:00 +23°C° 0 mm 1 mps 736 mmHg 51%
    12:00 +25°C° 0 mm 1 mps 736 mmHg 46%
    13:00 +25°C° 0 mm 2 mps 736 mmHg 46%
    14:00 +25°C° 0 mm 2 mps 736 mmHg 47%
    15:00 +25°C° 0 mm 2 mps 736 mmHg 47%
    16:00 +23°C° 0 mm 2 mps 736 mmHg 54%
    17:00 +20°C° 0 mm 2 mps 736 mmHg 61%
    18:00 +19°C° 0 mm 1 mps 736 mmHg 68%
    19:00 +19°C° 0 mm 1 mps 736 mmHg 69%
    20:00 +18°C° 0 mm 1 mps 736 mmHg 71%
    21:00 +16°C° 0 mm 2 mps 736 mmHg 73%
    22:00 +16°C° 0 mm 1 mps 736 mmHg 73%
    23:00 +16°C° 0 mm 1 mps 736 mmHg 74%

    Tomorrow, 20 October, Sunday

    Time Temperature Precipitation Wind Pressure Humidity
    00:00 +15°C° 0 mm 1 mps 736 mmHg 74%
    01:00 +15°C° 0 mm 1 mps 736 mmHg 74%
    02:00 +15°C° 0 mm 1 mps 736 mmHg 75%
    03:00 +15°C° 0 mm 1 mps 736 mmHg 75%
    04:00 +14°C° 0 mm 1 mps 736 mmHg 76%
    05:00 +14°C° 0 mm 1 mps 737 mmHg 77%
    06:00 +14°C° 0 mm 1 mps 737 mmHg 78%
    07:00 +16°C° 0 mm 1 mps 737 mmHg 72%
    08:00 +16°C° 0 mm 0 mps 737 mmHg 66%
    09:00 +18°C° 0 mm 0 mps 737 mmHg 60%
    10:00 +22°C° 0 mm 1 mps 737 mmHg 55%
    11:00 +23°C° 0 mm 2 mps 737 mmHg 50%
    12:00 +25°C° 0 mm 2 mps 737 mmHg 45%
    13:00 +25°C° 0 mm 2 mps 737 mmHg 45%
    14:00 +25°C° 0 mm 3 mps 737 mmHg 44%
    15:00 +25°C° 0 mm 3 mps 737 mmHg 44%
    16:00 +22°C° 0 mm 3 mps 737 mmHg 50%
    17:00 +20°C° 0 mm 2 mps 737 mmHg 56%
    18:00 +18°C° 0 mm 2 mps 737 mmHg 63%
    19:00 +18°C° 0 mm 2 mps 737 mmHg 65%
    20:00 +17°C° 0 mm 2 mps 737 mmHg 68%
    21:00 +16°C° 0 mm 3 mps 737 mmHg 70%
    22:00 +16°C° 0 mm 2 mps 737 mmHg 71%
    23:00 +15°C° 0 mm 2 mps 737 mmHg 72%

    Day after tomorrow, 21 October, Monday

    Time Temperature Precipitation Wind Pressure Humidity
    00:00 +15°C° 0 mm 2 mps 737 mmHg 73%
    01:00 +15°C° 0 mm 1 mps 737 mmHg 74%
    02:00 +14°C° 0 mm 1 mps 736 mmHg 75%
    03:00 +14°C° 0 mm 1 mps 736 mmHg 76%
    04:00 +13°C° 0 mm 1 mps 736 mmHg 78%
    05:00 +13°C° 0 mm 1 mps 737 mmHg 79%
    06:00 +13°C° 0 mm 1 mps 737 mmHg 80%
    07:00 +15°C° 0 mm 1 mps 737 mmHg 74%
    08:00 +16°C° 0 mm 1 mps 737 mmHg 69%
    09:00 +19°C° 0 mm 1 mps 737 mmHg 63%
    10:00 +20°C° 0 mm 1 mps 737 mmHg 58%
    11:00 +21°C° 0 mm 2 mps 737 mmHg 54%
    12:00 +23°C° 0 mm 2 mps 737 mmHg 49%
    13:00 +22°C° 0 mm 3 mps 737 mmHg 48%
    14:00 +22°C° 0 mm 3 mps 737 mmHg 46%
    15:00 +24°C° 0 mm 3 mps 737 mmHg 45%
    16:00 +21°C° 0 mm 3 mps 737 mmHg 50%
    17:00 +19°C° 0 mm 3 mps 737 mmHg 55%
    18:00 +17°C° 0 mm 3 mps 736 mmHg 60%
    19:00 +16°C° 0 mm 3 mps 736 mmHg 64%
    20:00 +14°C° 0 mm 3 mps 736 mmHg 67%
    21:00 +14°C° 0 mm 3 mps 736 mmHg 70%
    22:00 +14°C° 0 mm 2 mps 736 mmHg 73%
    23:00 +14°C° 0 mm 2 mps 736 mmHg 76%

    22 October, Tuesday

    Time Temperature Precipitation Wind Pressure Humidity
    00:00 +13°C° 0 mm 1 mps 736 mmHg 79%
    01:00 +13°C° 0 mm 1 mps 736 mmHg 81%
    02:00 +13°C° 0 mm 1 mps 736 mmHg 83%
    03:00 +12°C° 0 mm 1 mps 736 mmHg 84%
    04:00 +12°C° 0 mm 1 mps 736 mmHg 85%
    05:00 +12°C° 0 mm 1 mps 736 mmHg 86%
    06:00 +12°C° 0 mm 1 mps 736 mmHg 87%
    07:00 +13°C° 0 mm 1 mps 737 mmHg 81%
    08:00 +15°C° 0 mm 1 mps 737 mmHg 74%
    09:00 +18°C° 0 mm 1 mps 737 mmHg 67%
    10:00 +19°C° 0 mm 1 mps 737 mmHg 63%
    11:00 +20°C° 0 mm 2 mps 737 mmHg 58%
    12:00 +21°C° 0 mm 2 mps 737 mmHg 53%
    13:00 +21°C° 0 mm 2 mps 737 mmHg 52%
    14:00 +23°C° 0 mm 2 mps 737 mmHg 52%
    15:00 +22°C° 0 mm 3 mps 737 mmHg 51%
    16:00 +20°C° 0 mm 3 mps 737 mmHg 57%
    17:00 +18°C° 0 mm 3 mps 736 mmHg 63%
    18:00 +16°C° 0 mm 3 mps 736 mmHg 68%
    19:00 +16°C° 0 mm 3 mps 736 mmHg 72%
    20:00 +14°C° 0 mm 3 mps 736 mmHg 76%
    21:00 +14°C° 0 mm 2 mps 736 mmHg 80%
    22:00 +13°C° 0 mm 2 mps 736 mmHg 82%
    23:00 +13°C° 0 mm 2 mps 736 mmHg 83%

    23 October, Wednesday

    Time Temperature Precipitation Wind Pressure Humidity
    00:00 +13°C° 0 mm 1 mps 736 mmHg 85%
    01:00 +13°C° 0 mm 1 mps 736 mmHg 85%
    02:00 +12°C° 0 mm 1 mps 736 mmHg 85%
    03:00 +12°C° 0 mm 1 mps 736 mmHg 85%
    04:00 +12°C° 0 mm 1 mps 736 mmHg 86%
    05:00 +12°C° 0 mm 1 mps 736 mmHg 86%
    06:00 +12°C° 0 mm 1 mps 736 mmHg 87%
    07:00 +14°C° 0 mm 1 mps 736 mmHg 80%
    08:00 +15°C° 0 mm 1 mps 737 mmHg 74%
    09:00 +18°C° 0 mm 1 mps 737 mmHg 67%
    10:00 +20°C° 0 mm 1 mps 737 mmHg 62%
    11:00 +21°C° 0 mm 1 mps 737 mmHg 56%
    12:00 +23°C° 0 mm 1 mps 737 mmHg 51%
    13:00 +23°C° 0 mm 2 mps 737 mmHg 50%
    14:00 +23°C° 0 mm 2 mps 736 mmHg 50%
    15:00 +23°C° 0 mm 2 mps 736 mmHg 49%
    16:00 +20°C° 0 mm 2 mps 736 mmHg 57%
    17:00 +18°C° 0 mm 2 mps 736 mmHg 65%
    18:00 +16°C° 0 mm 1 mps 736 mmHg 73%
    19:00 +15°C° 0 mm 1 mps 736 mmHg 74%
    20:00 +15°C° 0 mm 2 mps 736 mmHg 76%
    21:00 +14°C° 0 mm 2 mps 736 mmHg 78%
    22:00 +14°C° 0 mm 1 mps 736 mmHg 78%
    23:00 +14°C° 0 mm 1 mps 735 mmHg 78%

    24 October, Thursday

    Time Temperature Precipitation Wind Pressure Humidity
    00:00 +13°C° 0 mm 1 mps 735 mmHg 79%
    01:00 +13°C° 0 mm 1 mps 735 mmHg 79%
    02:00 +13°C° 0 mm 1 mps 735 mmHg 80%
    03:00 +12°C° 0 mm 1 mps 735 mmHg 80%
    04:00 +12°C° 0 mm 1 mps 735 mmHg 80%
    05:00 +12°C° 0 mm 1 mps 735 mmHg 79%
    06:00 +12°C° 0 mm 1 mps 735 mmHg 79%
    07:00 +13°C° 0 mm 0 mps 736 mmHg 73%
    08:00 +14°C° 0 mm 0 mps 736 mmHg 68%
    09:00 +16°C° 0 mm 0 mps 736 mmHg 62%
    10:00 +18°C° 0 mm 0 mps 736 mmHg 57%
    11:00 +21°C° 0 mm 1 mps 736 mmHg 51%
    12:00 +23°C° 0 mm 1 mps 736 mmHg 46%
    13:00 +23°C° 0 mm 1 mps 736 mmHg 46%
    14:00 +23°C° 0 mm 1 mps 735 mmHg 46%
    15:00 +23°C° 0 mm 1 mps 735 mmHg 46%
    16:00 +21°C° 0 mm 1 mps 735 mmHg 54%
    17:00 +19°C° 0 mm 1 mps 735 mmHg 62%
    18:00 +14°C° 0 mm 0 mps 735 mmHg 70%
    19:00 +15°C° 0 mm 1 mps 735 mmHg 72%
    20:00 +15°C° 0 mm 1 mps 735 mmHg 74%
    21:00 +14°C° 0 mm 1 mps 735 mmHg 75%
    22:00 +14°C° 0 mm 1 mps 735 mmHg 75%
    23:00 +13°C° 0 mm 1 mps 735 mmHg 75%
    Show more